Regional Weather Roundup
Issued by NWS

Home | Current Version | Previous Version | Text Only | Print | Product List | Glossary On
Versions: 1 2 3 4 5 6 7 8 9 10 11 12 13 14 15 16 17 18 19 20 21 22 23 24 25 26 27 28 29 30 31 32 33 34 35 36 37 38 39 40 41 42 43 44 45 46 47 48 49 50
000
ASCA44 KEWX 061720
RWRMX

LATIN AMERICA AND CARIBBEAN REGIONAL WEATHER ROUNDUP
NATIONAL WEATHER SERVICE AUSTIN/SAN ANTONIO TX
1200 PM CDT FRI MAY 06 2016

NOTE: "FAIR" INDICATED FEW OR NO CLOUDS BELOW 12,000 FEET WITH NO
SIGNIFICANT WEATHER AND/OR OBSTRUCTIONS TO VISIBILITY.

BAJA CALIFORNIA

CITY           SKY/WX    TMP DP  RH WIND       PRES   REMARKS
LORETO         MOSUNNY   77  59  53 NE12      29.92R
LA PAZ         MOSUNNY   75  43  31 NW3       29.96S
MEXICALI       MOSUNNY   72  41  33 SE2       29.84S
S.J. DEL CABO  PTSUNNY   86  55  35 W9        29.92R
TIJUANA        LGT RAIN  59  48  67 S3        29.95F

NORTHWESTERN MEXICO

CITY           SKY/WX    TMP DP  RH WIND       PRES   REMARKS
CULIACAN       PTSUNNY   84  59  42 S8        29.91S
DURANGO        MOSUNNY   77  34  20 SE6       30.25S
GUAYMAS        SUNNY     77  55  47 W12       29.88R
HERMOSILLO     SUNNY     77  48  36 SW6       29.96R
CD. JUAREZ     SUNNY     79  37  22 E12       29.94S
LOS MOCHIS     PTSUNNY   81  59  47 NW9       29.92R
OBREGON        MOSUNNY   79  55  44 W5        29.89R

NORTHEASTERN MEXICO

CITY           SKY/WX    TMP DP  RH WIND       PRES   REMARKS
CHIHUAHUA      MOSUNNY   88  32  13 SE14      30.04S
MATAMOROS      SUNNY     86  55  35 S6        30.05F
MONCLOVA       MOSUNNY   84  41  21 CALM      30.03
MONTERREY      SUNNY     82  50  32 SE12      30.05F
NUEVO LAREDO   MOSUNNY   88  46  23 SE14      30.03F
PIEDRAS NEGRAS SUNNY     86  52  30 SE9       30.07S
REYNOSA        MOSUNNY   84  46  26 SE12      30.06S
SALTILLO       SUNNY     79  61  53 N8        30.24F
TORREON        PTSUNNY   82  50  32 NE5       30.09F
CD. VICTORIA   SUNNY     86  52  30 S6        30.06F

WESTERN MEXICO

CITY           SKY/WX    TMP DP  RH WIND       PRES   REMARKS
AGUASCALIENTES MOSUNNY   79  39  24 CALM      30.27F
COLIMA         MOSUNNY   81  57  44 CALM      30.02S
DEL BAJIO      MOSUNNY   77  50  38 S8        30.32F
GUADALAJARA    SUNNY     82  36  18 S6        30.19F
MANZANILLO     PTSUNNY   81  75  83 CALM      29.92R
MAZATLAN       MOSUNNY   86  66  51 SW8       29.92R
P. VALLARTA    SUNNY     81  72  74 SW10      29.93R
URUAPAN        SUNNY     79  55  44 S9        30.21S HAZE
ZACATECAS      MOSUNNY   77  43  29 CALM      30.31F

CENTRAL MEXICO

CITY           SKY/WX    TMP DP  RH WIND       PRES   REMARKS
CUERNAVACA     PTSUNNY   79  59  50 CALM      30.17S
MEXICO CITY    MOSUNNY   73  45  35 E7        30.36F
MORELIA        MOSUNNY   79  55  44 VRB3      30.26F
POZA RICA      SUNNY     82  72  69 CALM      30.09F
PUEBLA         MOSUNNY   70  50  49 S3        30.36F
QUERETARO      SUNNY     72  50  46 E7        30.34F
S. LUIS POTOSI SUNNY     73  45  35 E8        30.29F
TAMPICO        SUNNY     84  63  48 W12       30.05F
TOLUCA         PTSUNNY   75  48  38 NW6       30.44S HAZE

SOUTHERN MEXICO

CITY           SKY/WX    TMP DP  RH WIND       PRES   REMARKS
ACAPULCO       PTSUNNY   86  77  74 W9        29.88R HX  97
B. DE HUATULCO PTSUNNY   91  68  46 CALM      29.97S HX  95
OAXACA         PTSUNNY   77  52  41 NE6       30.24F
P. ESCONDIDO   MOSUNNY   84  77  79 SE17      30.01R HX  94
VERACRUZ       PTSUNNY   81  66  61 E6        30.07S
ZIHUATANEJO    PTSUNNY   86  77  74 SW7       29.91S HX  97

YUCATAN PENINSULA

CITY           SKY/WX    TMP DP  RH WIND       PRES   REMARKS
CAMPECHE       MOSUNNY   81  63  54 N12       30.00S
CANCUN         PTSUNNY   82  59  44 NW3       29.98F
CHETUMAL       SUNNY     81  63  54 S9        30.01F
CD. DEL CARMEN MOSUNNY   82  61  47 CALM      30.04S
COZUMEL        MOSUNNY   77  64  65 NW5       30.00F
MERIDA         MOSUNNY   88  54  31 N6        30.01F
MINATITLAN     MOSUNNY   82  73  74 CALM      30.02F
TAPACHULA      PTSUNNY   91  81  70 W12       29.85S HX 110
TUX. GUTIERREZ PTSUNNY   82  59  44 NW7       30.03F
VILLAHERMOSA   MOSUNNY   82  66  57 NE5       30.06F

CENTRAL AMERICA

CITY           SKY/WX    TMP DP  RH WIND       PRES   REMARKS
BELIZE CITY    MOSUNNY   82  70  65 NW6       30.03F
MANAGUA        MOSUNNY   90  75  62 SE7       29.80F HX 100

CARIBBEAN

CITY           SKY/WX    TMP DP  RH WIND       PRES   REMARKS
ARUBA          MOSUNNY   93  75  55 E23       29.77F HX 104
CURACAO        MOSUNNY   90  79  70 E17       29.83S HX 105
KINGSTON       PTSUNNY   84  75  74 S8        29.83F HX  92
NASSAU         MOSUNNY   86  70  58 NW17      29.89F HX  90
SAN JUAN       MOSUNNY   90  73  58 SE14G24   29.91F HX  98
SANTO DOMINGO  MOSUNNY   86  75  70 SE12      29.89S HX  95
ST. CROIX      MOSUNNY   88  75  66 SE12G20   29.96  HX  97
ST. KITTS      MOSUNNY   88  75  66 SE17      29.94S HX  97
ST. MAARTEN    MOSUNNY   84  77  79 SE15      29.94S HX  94
ST. THOMAS     SUNNY     88  79  74 SE16      29.94  HX 102

$$




USA.gov is the U.S. government's official web portal to all federal, state and local government web resources and services.